Location: Marcé
(47.5801°N, 0.3280°W)
Time: 15:43:28
(UTC+01:00)

SR - Pass Details

Date: 05 December 2021
Orbit: 582 x 872 km, 66.7° (Epoch: 22 January)

Event Time Altitude Azimuth Distance (km) Brightness Sun altitude
Rises 22:57:02 0° 173° (S) 2,987 - -55.9°
Reaches altitude 10° 22:59:55 10° 156° (SSE) 2,030 - -56.3°
Maximum altitude 23:03:08 19° 111° (ESE) 1,469 - -56.8°
Drops below altitude 10° 23:06:15 10° 65° (ENE) 1,952 - -57.2°
Sets 23:08:57 0° 48° (NE) 2,835 - -57.5°
